When you browse on this site, cookies collect data to enhance your experience and personalize the content and advertising you see.
Visit our Privacy Policy to learn more. By continuing to use the site, you agree to this use of cookies and data.
  • In United Kingdom
  • List of Countries
  • For 7 days
  • Water Temperature
  • Satellite Maps
  • Weather Map
  • Weather Widgets
  • user-avatar
    Login

    Hourly Weather Stirling

    Today, 19 April, Friday

    Time Temperature Precipitation Wind Pressure Humidity
    00:00 +7°C° 0 mm 2 mps 771 mmHg 95%
    01:00 +6°C° 0 mm 2 mps 771 mmHg 95%
    02:00 +6°C° 0 mm 2 mps 771 mmHg 95%
    03:00 +6°C° 0 mm 2 mps 771 mmHg 95%
    04:00 +6°C° 0 mm 2 mps 771 mmHg 94%
    05:00 +7°C° 0 mm 2 mps 772 mmHg 93%
    06:00 +7°C° 0 mm 2 mps 772 mmHg 92%
    07:00 +9°C° 0 mm 2 mps 772 mmHg 85%
    08:00 +12°C° 0 mm 2 mps 772 mmHg 78%
    09:00 +13°C° 0 mm 2 mps 772 mmHg 71%
    10:00 +15°C° 0 mm 2 mps 772 mmHg 63%
    11:00 +17°C° 0 mm 2 mps 772 mmHg 56%
    12:00 +19°C° 0 mm 2 mps 772 mmHg 49%
    13:00 +20°C° 0 mm 2 mps 772 mmHg 47%
    14:00 +21°C° 0 mm 3 mps 772 mmHg 44%
    15:00 +21°C° 0 mm 3 mps 771 mmHg 42%
    16:00 +21°C° 0 mm 3 mps 771 mmHg 48%
    17:00 +20°C° 0 mm 2 mps 771 mmHg 54%
    18:00 +19°C° 0 mm 2 mps 771 mmHg 60%
    19:00 +17°C° 0 mm 2 mps 772 mmHg 64%
    20:00 +15°C° 0 mm 1 mps 772 mmHg 69%
    21:00 +13°C° 0 mm 1 mps 772 mmHg 74%
    22:00 +13°C° 0 mm 1 mps 772 mmHg 76%
    23:00 +12°C° 0 mm 1 mps 772 mmHg 78%

    Tomorrow, 20 April, Saturday

    Time Temperature Precipitation Wind Pressure Humidity
    00:00 +11°C° 0 mm 1 mps 772 mmHg 79%
    01:00 +11°C° 0 mm 1 mps 772 mmHg 79%
    02:00 +11°C° 0 mm 1 mps 772 mmHg 79%
    03:00 +11°C° 0 mm 1 mps 772 mmHg 79%
    04:00 +11°C° 0 mm 1 mps 772 mmHg 79%
    05:00 +11°C° 0 mm 1 mps 772 mmHg 79%
    06:00 +11°C° 0 mm 1 mps 772 mmHg 80%
    07:00 +13°C° 0 mm 2 mps 772 mmHg 76%
    08:00 +14°C° 0 mm 2 mps 772 mmHg 71%
    09:00 +16°C° 0 mm 2 mps 772 mmHg 67%
    10:00 +17°C° 0 mm 2 mps 772 mmHg 66%
    11:00 +18°C° 0 mm 3 mps 772 mmHg 66%
    12:00 +19°C° 0 mm 3 mps 772 mmHg 66%
    13:00 +20°C° 0 mm 3 mps 772 mmHg 65%
    14:00 +20°C° 0 mm 3 mps 771 mmHg 64%
    15:00 +20°C° 0 mm 2 mps 771 mmHg 62%
    16:00 +20°C° 0 mm 2 mps 771 mmHg 67%
    17:00 +19°C° 0 mm 2 mps 771 mmHg 71%
    18:00 +19°C° 0 mm 1 mps 771 mmHg 75%
    19:00 +18°C° 0 mm 1 mps 771 mmHg 79%
    20:00 +15°C° 0 mm 1 mps 770 mmHg 83%
    21:00 +14°C° 0 mm 1 mps 770 mmHg 88%
    22:00 +14°C° 0 mm 1 mps 770 mmHg 88%
    23:00 +14°C° 0 mm 1 mps 769 mmHg 89%

    Day after tomorrow, 21 April, Sunday

    Time Temperature Precipitation Wind Pressure Humidity
    00:00 +14°C° 0 mm 1 mps 768 mmHg 89%
    01:00 +13°C° 0 mm 1 mps 768 mmHg 91%
    02:00 +13°C° 0 mm 1 mps 767 mmHg 92%
    03:00 +12°C° 0 mm 1 mps 766 mmHg 94%
    04:00 +12°C° 0 mm 1 mps 766 mmHg 92%
    05:00 +12°C° 0 mm 1 mps 765 mmHg 90%
    06:00 +12°C° 0 mm 1 mps 765 mmHg 88%
    07:00 +14°C° 0 mm 2 mps 764 mmHg 82%
    08:00 +14°C° 0 mm 3 mps 764 mmHg 76%
    09:00 +17°C° 0 mm 4 mps 763 mmHg 69%
    10:00 +18°C° 0 mm 4 mps 763 mmHg 65%
    11:00 +19°C° 0 mm 5 mps 762 mmHg 60%
    12:00 +20°C° 0 mm 6 mps 762 mmHg 56%
    13:00 +20°C° 0 mm 6 mps 761 mmHg 55%
    14:00 +20°C° 0 mm 6 mps 760 mmHg 54%
    15:00 +20°C° 0 mm 6 mps 760 mmHg 52%
    16:00 +19°C° 0 mm 5 mps 759 mmHg 57%
    17:00 +18°C° 0 mm 4 mps 759 mmHg 61%
    18:00 +17°C° 0 mm 4 mps 759 mmHg 65%
    19:00 +16°C° 0 mm 3 mps 758 mmHg 70%
    20:00 +13°C° 0 mm 3 mps 758 mmHg 74%
    21:00 +13°C° 0 mm 2 mps 758 mmHg 79%
    22:00 +12°C° 0 mm 2 mps 758 mmHg 81%
    23:00 +12°C° 0 mm 2 mps 757 mmHg 82%

    22 April, Monday

    Time Temperature Precipitation Wind Pressure Humidity
    00:00 +10°C° 0 mm 2 mps 757 mmHg 84%
    01:00 +10°C° 0 mm 2 mps 756 mmHg 85%
    02:00 +10°C° 0 mm 2 mps 756 mmHg 87%
    03:00 +10°C° 0 mm 1 mps 756 mmHg 88%
    04:00 +10°C° 0 mm 1 mps 756 mmHg 90%
    05:00 +11°C° 0 mm 1 mps 755 mmHg 91%
    06:00 +11°C° 0 mm 1 mps 755 mmHg 93%
    07:00 +13°C° 0 mm 2 mps 755 mmHg 83%
    08:00 +14°C° 0 mm 3 mps 755 mmHg 74%
    09:00 +17°C° 0 mm 4 mps 755 mmHg 65%
    10:00 +18°C° 0 mm 4 mps 755 mmHg 61%
    11:00 +19°C° 0 mm 5 mps 754 mmHg 57%
    12:00 +20°C° 0 mm 5 mps 754 mmHg 54%
    13:00 +20°C° 0 mm 5 mps 754 mmHg 51%
    14:00 +21°C° 0 mm 5 mps 753 mmHg 49%
    15:00 +21°C° 0 mm 5 mps 753 mmHg 47%
    16:00 +20°C° 0 mm 4 mps 753 mmHg 53%
    17:00 +19°C° 0 mm 4 mps 753 mmHg 60%
    18:00 +18°C° 0 mm 4 mps 753 mmHg 67%
    19:00 +16°C° 0 mm 3 mps 753 mmHg 70%
    20:00 +13°C° 0 mm 3 mps 753 mmHg 72%
    21:00 +12°C° 0 mm 3 mps 753 mmHg 75%
    22:00 +10°C° 0 mm 3 mps 753 mmHg 80%
    23:00 +9°C° 0 mm 3 mps 753 mmHg 85%

    23 April, Tuesday

    Time Temperature Precipitation Wind Pressure Humidity
    00:00 +8°C° 0 mm 3 mps 753 mmHg 90%
    01:00 +7°C° 0 mm 3 mps 753 mmHg 92%
    02:00 +7°C° 0 mm 3 mps 753 mmHg 93%
    03:00 +7°C° 0 mm 3 mps 752 mmHg 95%
    04:00 +7°C° 0 mm 3 mps 752 mmHg 94%
    05:00 +8°C° 0 mm 3 mps 752 mmHg 93%
    06:00 +8°C° 0 mm 3 mps 752 mmHg 93%
    07:00 +8°C° 0 mm 4 mps 752 mmHg 88%
    08:00 +11°C° 0 mm 4 mps 752 mmHg 82%
    09:00 +12°C° 0 mm 4 mps 752 mmHg 77%
    10:00 +13°C° 0 mm 5 mps 752 mmHg 70%
    11:00 +15°C° 0 mm 5 mps 752 mmHg 64%
    12:00 +16°C° 0 mm 6 mps 751 mmHg 57%
    13:00 +16°C° 0 mm 6 mps 751 mmHg 57%
    14:00 +16°C° 0 mm 6 mps 751 mmHg 58%
    15:00 +16°C° 0 mm 6 mps 750 mmHg 58%
    16:00 +15°C° 0 mm 6 mps 750 mmHg 63%
    17:00 +14°C° 0 mm 6 mps 750 mmHg 68%
    18:00 +13°C° 0 mm 6 mps 750 mmHg 73%
    19:00 +10°C° 0 mm 5 mps 750 mmHg 78%
    20:00 +9°C° 0 mm 5 mps 750 mmHg 84%
    21:00 +8°C° 0 mm 4 mps 750 mmHg 90%
    22:00 +7°C° 0 mm 4 mps 750 mmHg 91%
    23:00 +7°C° 0 mm 4 mps 750 mmHg 92%

    24 April, Wednesday

    Time Temperature Precipitation Wind Pressure Humidity
    00:00 +7°C° 0 mm 3 mps 750 mmHg 93%
    01:00 +7°C° 0 mm 3 mps 749 mmHg 93%
    02:00 +7°C° 0 mm 3 mps 749 mmHg 93%
    03:00 +7°C° 0 mm 3 mps 749 mmHg 93%
    04:00 +7°C° 0 mm 3 mps 749 mmHg 93%
    05:00 +7°C° 0 mm 3 mps 749 mmHg 92%
    06:00 +7°C° 0 mm 3 mps 748 mmHg 91%
    07:00 +8°C° 0.1 mm 3 mps 748 mmHg 90%
    08:00 +8°C° 0.1 mm 3 mps 748 mmHg 89%
    09:00 +9°C° 0.1 mm 3 mps 748 mmHg 88%
    10:00 +11°C° 0 mm 4 mps 748 mmHg 81%
    11:00 +13°C° 0 mm 4 mps 748 mmHg 75%
    12:00 +15°C° 0 mm 5 mps 748 mmHg 68%
    13:00 +15°C° 0.4 mm 5 mps 747 mmHg 72%
    14:00 +15°C° 0.4 mm 5 mps 747 mmHg 76%
    15:00 +15°C° 0.4 mm 5 mps 747 mmHg 79%
    16:00 +14°C° 1.9 mm 5 mps 747 mmHg 83%
    17:00 +13°C° 1.9 mm 4 mps 747 mmHg 87%
    18:00 +12°C° 1.9 mm 4 mps 747 mmHg 91%
    19:00 +11°C° 0.2 mm 3 mps 747 mmHg 90%
    20:00 +10°C° 0.2 mm 3 mps 747 mmHg 89%
    21:00 +9°C° 0.2 mm 3 mps 747 mmHg 88%
    22:00 +8°C° 0 mm 3 mps 747 mmHg 88%
    23:00 +8°C° 0 mm 3 mps 747 mmHg 89%
    Show more